When you browse on this site, cookies collect data to enhance your experience and personalize the content and advertising you see.
Visit our Privacy Policy to learn more. By continuing to use the site, you agree to this use of cookies and data.
EN

Hourly Weather Vsetin

Today, 3 July, Friday

Time Temperature Precipitation Wind Pressure Humidity
00:00 +15°C° 0 mm 0 mps 718 mmHg 92%
01:00 +15°C° 0 mm 0 mps 718 mmHg 92%
02:00 +16°C° 0 mm 1 mps 718 mmHg 93%
03:00 +16°C° 0 mm 1 mps 718 mmHg 93%
04:00 +15°C° 0 mm 1 mps 718 mmHg 94%
05:00 +16°C° 0 mm 1 mps 718 mmHg 92%
06:00 +19°C° 0 mm 1 mps 719 mmHg 91%
07:00 +19°C° 0 mm 2 mps 719 mmHg 87%
08:00 +19°C° 0.1 mm 2 mps 720 mmHg 84%
09:00 +20°C° 0.1 mm 3 mps 720 mmHg 80%
10:00 +20°C° 0.1 mm 3 mps 720 mmHg 77%
11:00 +21°C° 0.2 mm 3 mps 720 mmHg 75%
12:00 +21°C° 0.2 mm 3 mps 720 mmHg 74%
13:00 +21°C° 0 mm 2 mps 721 mmHg 74%
14:00 +21°C° 0.4 mm 2 mps 721 mmHg 75%
15:00 +21°C° 0.4 mm 3 mps 721 mmHg 76%
16:00 +20°C° 0.4 mm 3 mps 721 mmHg 76%
17:00 +20°C° 0.1 mm 3 mps 721 mmHg 80%
18:00 +19°C° 0.1 mm 2 mps 721 mmHg 83%
19:00 +18°C° 0.1 mm 2 mps 721 mmHg 87%
20:00 +18°C° 0 mm 1 mps 721 mmHg 89%
21:00 +16°C° 0 mm 1 mps 722 mmHg 92%
22:00 +14°C° 0 mm 1 mps 722 mmHg 94%
23:00 +14°C° 0 mm 1 mps 722 mmHg 94%

Tomorrow, 4 July, Saturday

Time Temperature Precipitation Wind Pressure Humidity
00:00 +14°C° 0 mm 1 mps 722 mmHg 94%
01:00 +13°C° 0 mm 1 mps 722 mmHg 94%
02:00 +13°C° 0 mm 1 mps 722 mmHg 94%
03:00 +13°C° 0 mm 1 mps 722 mmHg 94%
04:00 +12°C° 0 mm 1 mps 722 mmHg 94%
05:00 +14°C° 0 mm 1 mps 722 mmHg 89%
06:00 +16°C° 0 mm 1 mps 723 mmHg 84%
07:00 +19°C° 0 mm 1 mps 723 mmHg 79%
08:00 +20°C° 0 mm 1 mps 723 mmHg 71%
09:00 +22°C° 0 mm 1 mps 723 mmHg 62%
10:00 +23°C° 0 mm 2 mps 724 mmHg 54%
11:00 +24°C° 0 mm 2 mps 723 mmHg 52%
12:00 +24°C° 0 mm 2 mps 723 mmHg 50%
13:00 +25°C° 0 mm 2 mps 723 mmHg 48%
14:00 +25°C° 0 mm 2 mps 723 mmHg 49%
15:00 +25°C° 0 mm 2 mps 723 mmHg 51%
16:00 +25°C° 0 mm 2 mps 722 mmHg 52%
17:00 +23°C° 0 mm 2 mps 722 mmHg 60%
18:00 +22°C° 0 mm 1 mps 722 mmHg 68%
19:00 +20°C° 0 mm 1 mps 722 mmHg 76%
20:00 +19°C° 0 mm 1 mps 722 mmHg 79%
21:00 +18°C° 0 mm 1 mps 722 mmHg 81%
22:00 +15°C° 0 mm 1 mps 722 mmHg 84%
23:00 +15°C° 0 mm 1 mps 722 mmHg 84%

Day after tomorrow, 5 July, Sunday

Time Temperature Precipitation Wind Pressure Humidity
00:00 +14°C° 0 mm 0 mps 722 mmHg 84%
01:00 +13°C° 0 mm 0 mps 722 mmHg 84%
02:00 +13°C° 0 mm 0 mps 722 mmHg 86%
03:00 +14°C° 0 mm 1 mps 722 mmHg 87%
04:00 +14°C° 0 mm 1 mps 721 mmHg 89%
05:00 +16°C° 0 mm 1 mps 722 mmHg 83%
06:00 +18°C° 0 mm 1 mps 722 mmHg 77%
07:00 +20°C° 0 mm 1 mps 722 mmHg 72%
08:00 +22°C° 0 mm 1 mps 722 mmHg 66%
09:00 +23°C° 0 mm 2 mps 722 mmHg 61%
10:00 +24°C° 0 mm 2 mps 723 mmHg 55%
11:00 +25°C° 0 mm 2 mps 722 mmHg 55%
12:00 +26°C° 0 mm 2 mps 722 mmHg 56%
13:00 +27°C° 0 mm 3 mps 722 mmHg 56%
14:00 +26°C° 0 mm 3 mps 722 mmHg 58%
15:00 +26°C° 0 mm 3 mps 721 mmHg 60%
16:00 +26°C° 0 mm 3 mps 721 mmHg 62%
17:00 +25°C° 0.1 mm 2 mps 721 mmHg 69%
18:00 +24°C° 0.1 mm 1 mps 721 mmHg 76%
19:00 +22°C° 0.1 mm 1 mps 720 mmHg 84%
20:00 +21°C° 0 mm 1 mps 720 mmHg 86%
21:00 +20°C° 0 mm 1 mps 720 mmHg 88%
22:00 +17°C° 0 mm 0 mps 720 mmHg 90%
23:00 +17°C° 0 mm 0 mps 720 mmHg 90%

6 July, Monday

Time Temperature Precipitation Wind Pressure Humidity
00:00 +18°C° 0 mm 1 mps 720 mmHg 90%
01:00 +18°C° 0 mm 1 mps 720 mmHg 90%
02:00 +18°C° 0 mm 1 mps 719 mmHg 91%
03:00 +16°C° 0 mm 0 mps 719 mmHg 92%
04:00 +15°C° 0 mm 0 mps 719 mmHg 93%
05:00 +19°C° 0 mm 1 mps 719 mmHg 88%
06:00 +21°C° 0 mm 1 mps 719 mmHg 83%
07:00 +22°C° 0 mm 1 mps 719 mmHg 78%
08:00 +23°C° 0 mm 2 mps 719 mmHg 72%
09:00 +24°C° 0 mm 3 mps 719 mmHg 66%
10:00 +25°C° 0 mm 3 mps 719 mmHg 60%
11:00 +26°C° 0 mm 3 mps 719 mmHg 58%
12:00 +26°C° 0 mm 3 mps 719 mmHg 57%
13:00 +27°C° 0 mm 3 mps 718 mmHg 55%
14:00 +26°C° 0.2 mm 3 mps 718 mmHg 59%
15:00 +26°C° 0.2 mm 3 mps 718 mmHg 64%
16:00 +25°C° 0.2 mm 4 mps 718 mmHg 68%
17:00 +22°C° 0.3 mm 3 mps 718 mmHg 75%
18:00 +20°C° 0.3 mm 2 mps 718 mmHg 81%
19:00 +18°C° 0.3 mm 2 mps 719 mmHg 88%
20:00 +17°C° 0 mm 2 mps 719 mmHg 87%
21:00 +16°C° 0 mm 2 mps 720 mmHg 86%
22:00 +15°C° 0 mm 2 mps 720 mmHg 85%
23:00 +14°C° 0 mm 2 mps 720 mmHg 82%

7 July, Tuesday

Time Temperature Precipitation Wind Pressure Humidity
00:00 +14°C° 0 mm 1 mps 721 mmHg 80%
01:00 +13°C° 0 mm 1 mps 721 mmHg 78%
02:00 +13°C° 0.3 mm 1 mps 721 mmHg 82%
03:00 +11°C° 0.3 mm 0 mps 721 mmHg 87%
04:00 +10°C° 0.3 mm 0 mps 722 mmHg 91%
05:00 +12°C° 0 mm 1 mps 722 mmHg 88%
06:00 +13°C° 0 mm 1 mps 722 mmHg 85%
07:00 +14°C° 0 mm 2 mps 722 mmHg 82%
08:00 +15°C° 0 mm 2 mps 722 mmHg 75%
09:00 +16°C° 0 mm 3 mps 723 mmHg 69%
10:00 +17°C° 0 mm 3 mps 723 mmHg 62%
11:00 +18°C° 0.1 mm 3 mps 723 mmHg 60%
12:00 +18°C° 0.1 mm 3 mps 723 mmHg 58%
13:00 +19°C° 0.1 mm 3 mps 722 mmHg 56%
14:00 +19°C° 0.2 mm 3 mps 722 mmHg 59%
15:00 +18°C° 0.2 mm 3 mps 722 mmHg 63%
16:00 +18°C° 0.2 mm 3 mps 722 mmHg 66%
17:00 +17°C° 0.1 mm 3 mps 722 mmHg 71%
18:00 +16°C° 0.1 mm 2 mps 722 mmHg 76%
19:00 +15°C° 0.1 mm 1 mps 723 mmHg 81%
20:00 +14°C° 0 mm 1 mps 723 mmHg 84%
21:00 +13°C° 0 mm 1 mps 723 mmHg 87%
22:00 +11°C° 0 mm 1 mps 723 mmHg 90%
23:00 +11°C° 0 mm 1 mps 723 mmHg 90%

8 July, Wednesday

Time Temperature Precipitation Wind Pressure Humidity
00:00 +10°C° 0 mm 1 mps 723 mmHg 91%
01:00 +10°C° 0 mm 1 mps 723 mmHg 91%
02:00 +9°C° 0 mm 0 mps 723 mmHg 91%
03:00 +8°C° 0 mm 0 mps 723 mmHg 91%
04:00 +8°C° 0 mm 0 mps 723 mmHg 91%
05:00 +11°C° 0 mm 1 mps 723 mmHg 84%
06:00 +13°C° 0 mm 1 mps 724 mmHg 78%
07:00 +15°C° 0 mm 1 mps 724 mmHg 71%
08:00 +16°C° 0 mm 1 mps 724 mmHg 64%
09:00 +17°C° 0 mm 2 mps 724 mmHg 58%
10:00 +18°C° 0 mm 2 mps 725 mmHg 51%
11:00 +19°C° 0 mm 2 mps 725 mmHg 50%
12:00 +20°C° 0 mm 2 mps 725 mmHg 48%
13:00 +20°C° 0 mm 2 mps 725 mmHg 46%
14:00 +20°C° 0 mm 2 mps 724 mmHg 47%
15:00 +20°C° 0 mm 2 mps 724 mmHg 49%
16:00 +20°C° 0 mm 2 mps 724 mmHg 50%
17:00 +19°C° 0 mm 2 mps 724 mmHg 58%
18:00 +19°C° 0 mm 1 mps 724 mmHg 65%
19:00 +16°C° 0 mm 1 mps 724 mmHg 72%
20:00 +15°C° 0 mm 1 mps 724 mmHg 75%
21:00 +14°C° 0 mm 1 mps 724 mmHg 77%
22:00 +13°C° 0 mm 1 mps 724 mmHg 80%
23:00 +12°C° 0 mm 1 mps 724 mmHg 80%
Show more